Time,TemperatureF,DewpointF,PressureIn,WindDirection,WindDirectionDegrees,WindSpeedMPH,WindSpeedGustMPH,Humidity,HourlyPrecipIn,Conditions,Clouds,dailyrainin,SoftwareType,DateUTC
2013-09-17 00:12:00,52.0,49.0,30.26,SSE,162,4.0,7.0,90,0.00,,,0.01,,2013-09-17 05:12:00,
2013-09-17 00:23:00,51.0,48.0,30.26,South,172,2.0,5.0,90,0.00,,,0.01,,2013-09-17 05:23:00,
2013-09-17 00:42:00,51.0,48.0,30.25,SSE,148,2.0,5.0,91,0.00,,,0.01,,2013-09-17 05:42:00,
2013-09-17 00:52:00,51.0,48.0,30.25,SSE,148,2.0,5.0,91,0.00,,,0.01,,2013-09-17 05:52:00,
2013-09-17 01:12:00,50.0,48.0,30.25,South,183,1.0,4.0,92,0.00,,,0.01,,2013-09-17 06:12:00,
2013-09-17 01:22:00,50.0,48.0,30.25,South,170,2.0,4.0,92,0.00,,,0.01,,2013-09-17 06:22:00,
2013-09-17 01:42:00,50.0,48.0,30.25,South,169,1.0,3.0,93,0.00,,,0.01,,2013-09-17 06:42:00,
2013-09-17 01:52:00,50.0,48.0,30.25,South,169,2.0,4.0,94,0.00,,,0.01,,2013-09-17 06:52:00,
2013-09-17 02:11:00,50.0,48.0,30.24,SSE,165,2.0,4.0,93,0.00,,,0.01,,2013-09-17 07:11:00,
2013-09-17 02:23:00,51.0,49.0,30.24,South,188,2.0,4.0,94,0.00,,,0.01,,2013-09-17 07:23:00,
2013-09-17 02:42:00,51.0,49.0,30.24,SSE,166,2.0,6.0,93,0.00,,,0.01,,2013-09-17 07:42:00,
2013-09-17 02:52:00,51.0,49.0,30.24,SSE,165,2.0,5.0,93,0.00,,,0.01,,2013-09-17 07:52:00,
2013-09-17 03:12:00,51.0,49.0,30.23,South,172,1.0,4.0,93,0.00,,,0.01,,2013-09-17 08:12:00,
2013-09-17 03:22:00,50.0,48.0,30.23,SSE,161,1.0,3.0,93,0.00,,,0.01,,2013-09-17 08:22:00,
2013-09-17 03:42:00,50.0,48.0,30.22,SSW,198,1.0,3.0,94,0.00,,,0.01,,2013-09-17 08:42:00,
2013-09-17 03:52:00,50.0,48.0,30.22,SE,142,1.0,4.0,94,0.00,,,0.01,,2013-09-17 08:52:00,
2013-09-17 04:12:00,51.0,50.0,30.21,South,169,1.0,3.0,95,0.00,,,0.01,,2013-09-17 09:12:00,
2013-09-17 04:22:00,51.0,50.0,30.20,SSE,159,1.0,4.0,95,0.00,,,0.01,,2013-09-17 09:22:00,
2013-09-17 04:42:00,52.0,50.0,30.20,South,170,2.0,5.0,94,0.00,,,0.01,,2013-09-17 09:42:00,
2013-09-17 04:53:00,53.0,51.0,30.19,SSE,148,1.0,4.0,93,0.00,,,0.01,,2013-09-17 09:53:00,
2013-09-17 05:12:00,53.0,51.0,30.19,SSW,193,1.0,3.0,93,0.00,,,0.01,,2013-09-17 10:12:00,
2013-09-17 05:23:00,53.0,51.0,30.19,SSE,165,2.0,5.0,92,0.00,,,0.01,,2013-09-17 10:23:00,
2013-09-17 05:42:00,53.0,50.0,30.19,South,184,3.0,7.0,90,0.00,,,0.00,,2013-09-17 10:42:00,
2013-09-17 05:53:00,53.0,50.0,30.18,SSW,195,3.0,8.0,90,0.00,,,0.00,,2013-09-17 10:53:00,
2013-09-17 06:11:00,53.0,50.0,30.18,South,183,3.0,6.0,90,0.00,,,0.00,,2013-09-17 11:11:00,
2013-09-17 06:22:00,53.0,50.0,30.18,South,186,3.0,7.0,90,0.00,,,0.00,,2013-09-17 11:22:00,
2013-09-17 06:52:00,52.0,49.0,30.18,SSE,148,4.0,7.0,91,0.00,,,0.00,,2013-09-17 11:52:00,
2013-09-17 07:12:00,52.0,50.0,30.18,SE,146,3.0,6.0,92,0.00,,,0.00,,2013-09-17 12:12:00,
2013-09-17 07:22:00,52.0,50.0,30.18,SSE,166,3.0,7.0,92,0.00,,,0.00,,2013-09-17 12:22:00,
2013-09-17 07:42:00,52.0,50.0,30.18,SSE,162,3.0,7.0,92,0.00,,,0.00,,2013-09-17 12:42:00,
2013-09-17 07:52:00,53.0,51.0,30.18,South,185,2.0,5.0,92,0.00,,,0.00,,2013-09-17 12:52:00,
2013-09-17 08:11:00,53.0,51.0,30.18,SSE,148,1.0,4.0,92,0.00,,,0.00,,2013-09-17 13:11:00,
2013-09-17 08:22:00,53.0,50.0,30.18,South,174,2.0,6.0,91,0.00,,,0.00,,2013-09-17 13:22:00,
2013-09-17 08:42:00,53.0,50.0,30.17,SSW,195,3.0,7.0,90,0.00,,,0.00,,2013-09-17 13:42:00,
2013-09-17 08:52:00,53.0,50.0,30.17,SE,142,3.0,9.0,90,0.00,,,0.00,,2013-09-17 13:52:00,
2013-09-17 09:11:00,53.0,50.0,30.16,SSE,156,3.0,7.0,90,0.00,,,0.00,,2013-09-17 14:11:00,
2013-09-17 09:22:00,54.0,51.0,30.16,SE,146,3.0,10.0,91,0.00,,,0.00,,2013-09-17 14:22:00,
2013-09-17 09:52:00,54.0,52.0,30.15,SSW,197,4.0,8.0,92,0.00,,,0.00,,2013-09-17 14:52:00,
2013-09-17 10:11:00,54.0,52.0,30.15,South,184,6.0,11.0,93,0.00,,,0.00,,2013-09-17 15:11:00,
2013-09-17 10:22:00,54.0,52.0,30.14,SSW,197,5.0,9.0,93,0.00,,,0.00,,2013-09-17 15:22:00,
2013-09-17 10:44:00,54.0,52.0,30.14,SE,139,6.0,11.0,93,0.00,,,0.00,,2013-09-17 15:44:00,
2013-09-17 10:53:00,55.0,53.0,30.14,South,179,5.0,11.0,93,0.00,,,0.00,,2013-09-17 15:53:00,
2013-09-17 11:13:00,55.0,53.0,30.14,SSE,163,6.0,-999.0,92,-99.99,,,-99.99,,2013-09-17 16:13:00,
2013-09-17 11:23:00,55.0,53.0,30.13,SE,142,3.0,13.0,93,0.00,,,0.00,,2013-09-17 16:23:00,
2013-09-17 11:54:00,56.0,54.0,30.12,SSW,194,5.0,12.0,92,0.00,,,0.00,,2013-09-17 16:54:00,
2013-09-17 12:12:00,56.0,54.0,30.12,SSE,165,5.0,12.0,92,0.00,,,0.00,,2013-09-17 17:12:00,
2013-09-17 12:23:00,56.0,54.0,30.11,SSE,165,5.0,11.0,92,0.00,,,0.00,,2013-09-17 17:23:00,
2013-09-17 12:43:00,56.0,54.0,30.11,South,190,5.0,13.0,93,0.00,,,0.00,,2013-09-17 17:43:00,
2013-09-17 12:53:00,56.0,54.0,30.10,SSE,155,3.0,12.0,94,0.00,,,0.00,,2013-09-17 17:53:00,
2013-09-17 13:12:00,56.0,54.0,30.10,SSW,198,5.0,11.0,94,0.00,,,0.00,,2013-09-17 18:12:00,
2013-09-17 13:22:00,57.0,55.0,30.09,SSE,153,6.0,10.0,94,0.00,,,0.00,,2013-09-17 18:22:00,
2013-09-17 13:42:00,57.0,55.0,30.09,South,177,7.0,13.0,94,0.00,,,0.00,,2013-09-17 18:42:00,
2013-09-17 13:52:00,57.0,55.0,30.08,SSE,165,6.0,14.0,94,0.00,,,0.00,,2013-09-17 18:52:00,
2013-09-17 14:12:00,57.0,55.0,30.07,South,177,7.0,13.0,94,0.00,,,0.00,,2013-09-17 19:12:00,
2013-09-17 14:22:00,57.0,56.0,30.07,SSE,158,5.0,13.0,95,0.00,,,0.00,,2013-09-17 19:22:00,
2013-09-17 14:52:00,57.0,56.0,30.05,South,181,6.0,12.0,95,0.00,,,0.00,,2013-09-17 19:52:00,
2013-09-17 15:11:00,57.0,56.0,30.04,SE,126,4.0,12.0,95,0.00,,,0.00,,2013-09-17 20:11:00,
2013-09-17 15:22:00,57.0,56.0,30.04,SSW,200,5.0,15.0,95,0.00,,,0.00,,2013-09-17 20:22:00,
2013-09-17 15:52:00,57.0,56.0,30.03,South,191,4.0,11.0,95,0.00,,,0.00,,2013-09-17 20:52:00,
2013-09-17 16:12:00,57.0,56.0,30.02,South,188,5.0,14.0,95,0.00,,,0.00,,2013-09-17 21:12:00,
2013-09-17 16:22:00,57.0,56.0,30.01,SE,146,5.0,12.0,95,0.00,,,0.00,,2013-09-17 21:22:00,
2013-09-17 16:54:00,58.0,57.0,30.00,WSW,257,3.0,13.0,95,0.00,,,0.00,,2013-09-17 21:54:00,
2013-09-17 17:13:00,58.0,57.0,30.00,SSE,161,5.0,14.0,95,0.00,,,0.00,,2013-09-17 22:13:00,
2013-09-17 17:24:00,58.0,57.0,29.99,South,188,3.0,9.0,95,0.00,,,0.00,,2013-09-17 22:24:00,
2013-09-17 17:53:00,58.0,57.0,29.98,SW,231,4.0,11.0,96,0.00,,,0.00,,2013-09-17 22:53:00,
2013-09-17 18:12:00,58.0,57.0,29.98,SSW,210,5.0,14.0,96,0.00,,,0.00,,2013-09-17 23:12:00,
2013-09-17 18:22:00,58.0,57.0,29.98,South,169,4.0,12.0,96,0.00,,,0.00,,2013-09-17 23:22:00,
2013-09-17 18:52:00,58.0,57.0,29.97,SSE,157,5.0,13.0,96,0.00,,,0.00,,2013-09-17 23:52:00,
2013-09-17 19:11:00,58.0,57.0,29.98,SE,129,8.0,15.0,96,0.00,,,0.00,,2013-09-18 00:11:00,
2013-09-17 19:22:00,58.0,57.0,29.97,SSE,167,7.0,14.0,97,0.00,,,0.00,,2013-09-18 00:22:00,
2013-09-17 19:42:00,58.0,57.0,29.97,SSE,159,8.0,14.0,97,0.00,,,0.00,,2013-09-18 00:42:00,
2013-09-17 19:52:00,58.0,57.0,29.96,SSE,165,7.0,15.0,97,0.00,,,0.00,,2013-09-18 00:52:00,
2013-09-17 20:11:00,58.0,57.0,29.96,East,79,5.0,14.0,97,0.00,,,0.00,,2013-09-18 01:11:00,
2013-09-17 20:22:00,58.0,57.0,29.96,SSE,165,4.0,11.0,97,0.00,,,0.00,,2013-09-18 01:22:00,
2013-09-17 20:42:00,58.0,57.0,29.96,South,169,5.0,11.0,97,0.00,,,0.00,,2013-09-18 01:42:00,
2013-09-17 20:52:00,58.0,57.0,29.96,SSE,167,3.0,11.0,97,0.00,,,0.00,,2013-09-18 01:52:00,
2013-09-17 21:11:00,59.0,58.0,29.96,SSW,210,4.0,10.0,97,0.00,,,0.00,,2013-09-18 02:11:00,
2013-09-17 21:22:00,59.0,58.0,29.96,SE,135,4.0,9.0,97,0.00,,,0.00,,2013-09-18 02:22:00,
2013-09-17 21:43:00,59.0,58.0,29.96,South,177,4.0,11.0,97,0.01,,,0.01,,2013-09-18 02:43:00,
2013-09-17 21:52:00,59.0,58.0,29.95,South,169,5.0,10.0,97,0.01,,,0.01,,2013-09-18 02:52:00,
2013-09-17 22:12:00,59.0,58.0,29.95,SSE,167,5.0,12.0,97,0.01,,,0.01,,2013-09-18 03:12:00,
2013-09-17 22:23:00,60.0,59.0,29.95,SE,138,7.0,13.0,97,0.01,,,0.01,,2013-09-18 03:23:00,
2013-09-17 22:44:00,60.0,59.0,29.94,SE,134,6.0,11.0,97,0.01,,,0.02,,2013-09-18 03:44:00,
2013-09-17 22:54:00,60.0,59.0,29.95,South,185,6.0,13.0,97,0.01,,,0.02,,2013-09-18 03:54:00,
2013-09-17 23:14:00,60.0,59.0,29.94,South,185,6.0,13.0,98,0.01,,,0.02,,2013-09-18 04:14:00,
2013-09-17 23:24:00,60.0,59.0,29.94,South,185,6.0,13.0,98,0.01,,,0.02,,2013-09-18 04:24:00,
2013-09-17 23:44:00,61.0,60.0,29.94,SSW,195,8.0,16.0,98,0.00,,,0.02,,2013-09-18 04:44:00,
2013-09-17 23:54:00,61.0,60.0,29.94,SSE,166,9.0,15.0,98,0.00,,,0.02,,2013-09-18 04:54:00,